JAS-2 (FO-29)

Last updated on Sun Jan 18 2026 00:03:07 GMT+0000 (Coordinated Universal Time)

1 24278U 96046B 26017.55863129 .00000015 00000+0 47958-4 0 9995 2 24278 98.5440 246.8791 0350730 127.1212 236.2521 13.53264577452797
UTC large
Height (km)
Speed (km/s)
/
Latitude / Longitude
Inclination (degrees)
Orbital Period (minutes)
Azimuth
Elevation
Range (km)
Doppler Factor

Next 0 passes for location: London (51.5072 / 0.1276)

Sorry there are no passes over London.